Vorticity
14 9 8 8 8 6 4 6 10 7 9 8 8 9 8 5 5 4 4 6 4 18 9 15 11 9 1 12 9 7 -6 8 9 10 4 15 6 8 8 9 -1 5 -2 4 6
16 13 13 9 10 11 9 8 6 8 6 7 8 9 10 13 7 4 5 8 9 14 12 -0 13 8 8 9 14 -1 6 5 3 0 18 -4 12 12 11 5 5 8 6 3 8
16 14 9 13 10 9 6 6 8 10 11 8 27 26 21 23 17 12 6 8 10 3 13 8 7 10 10 2 12 11 -1 -16 20 -2 -0 6 20 1 15 12 12 10 4 12 8
20 16 15 7 6 6 6 10 10 23 13 14 6 2 10 15 18 26 46 23 6 9 6 13 10 8 10 3 2 6 11 8 1 15 12 14 -4 7 9 15 9 9 7 10 10
13 12 11 -1 8 7 12 11 26 20 24 27 14 6 8 8 10 -9 17 28 35 10 1 7 7 9 4 14 9 7 4 29 -11 -26 22 17 6 9 8 11 10 11 14 12 11
10 4 6 -4 17 11 9 7 14 16 9 11 6 12 7 4 22 30 20 10 31 11 -1 3 11 7 25 -2 15 24 4 4 29 9 -10 14 9 1 7 -0 8 -1 13 11 13
5 -2 12 17 16 3 10 23 21 18 8 3 12 5 6 14 -8 13 40 6 16 17 15 -0 3 8 -21 14 22 -20 19 23 -19 33 25 -10 -7 0 7 6 7 4 5 11 5
7 3 23 7 13 10 18 14 19 5 5 5 8 9 1 1 2 14 6 9 9 -4 -2 -15 9 13 -4 16 30 9 1 -2 51 -9 17 -15 16 23 16 -2 8 6 -0 11 3
7 14 19 13 23 7 10 13 9 10 13 10 6 12 10 9 15 24 15 48 -4 -17 57 5 14 4 14 5 2 23 4 -4 -15 45 -11 8 18 21 -15 49 16 -3 3 9 7
24 22 12 13 14 11 14 30 13 20 17 15 13 15 8 14 6 29 21 34 -2 -20 6 13 5 -0 -6 15 -1 5 16 19 14 19 18 14 -6 5 36 29 -4 14 17 9 10
10 11 10 16 11 18 11 8 19 18 22 6 -5 3 7 -2 -14 -2 16 11 52 3 46 -14 4 9 -15 -6 1 18 21 -6 20 -6 18 16 -0 -2 -17 -25 3 24 9 9 27
12 10 19 13 16 13 12 9 21 -3 12 28 16 4 16 13 14 25 7 14 13 17 -3 25 -1 8 -2 13 -14 14 4 7 16 20 -13 14 13 8 14 15 15 2 -3 9 15
6 16 10 16 17 25 13 32 23 8 3 32 25 28 28 19 15 27 16 29 15 -30 22 15 26 12 -9 21 -8 12 9 11 0 7 2 5 8 9 10 12 10 14 16 13 8
13 14 12 16 17 14 7 12 16 10 25 8 8 14 21 10 29 41 24 13 31 30 23 10 16 -2 -3 7 -3 3 5 13 -4 10 -5 11 16 32 16 14 11 11 12 13 14
15 13 9 9 7 10 7 9 14 26 9 23 7 12 17 3 45 44 7 -35 26 17 3 4 -2 10 20 -13 17 -7 -5 8 11 5 6 22 0 15 12 14 12 13 15 18 16
16 13 13 7 8 10 12 23 18 12 -20 9 18 12 17 30 9 1 14 -58 33 -4 -30 48 52 31 16 9 23 -22 33 8 7 -1 10 17 -12 18 8 10 12 23 18 14 15
16 11 10 6 10 9 18 17 7 13 15 3 10 -16 18 10 12 -8 15 8 20 -15 31 9 18 28 -14 0 -13 37 26 8 6 8 16 25 2 12 17 12 11 13 17 17 11
12 12 9 8 9 15 22 12 17 0 11 6 18 52 -7 -5 36 3 34 25 19 13 -18 8 -18 18 74 15 -1 6 -11 2 7 9 17 19 16 17 2 13 9 9 9 9 8
14 10 8 9 18 17 10 10 5 15 22 26 7 20 8 9 8 -15 22 10 9 3 19 1 3 25 32 13 2 21 3 9 1 11 4 10 21 12 25 8 2 4 4 4 5
7 2 8 24 16 11 4 17 10 17 7 14 13 20 19 8 2 7 18 8 -5 6 1 23 -5 17 21 11 10 -33 5 -2 10 7 7 16 11 10 16 10 9 6 4 3 5
8 10 15 31 13 10 14 16 4 15 19 9 18 15 -18 0 11 10 38 20 12 7 38 -10 9 23 -10 13 14 6 4 5 3 7 11 9 14 27 20 10 8 8 8 7 8
4 15 10 13 11 3 11 8 11 9 13 8 8 5 3 4 5 5 8 28 4 3 5 18 14 0 10 10 9 0 19 -3 3 11 12 11 9 27 16 10 1 2 11 0 4
2 -5 10 30 -4 5 9 1 10 14 11 6 26 10 8 2 -1 -5 2 -2 -4 -2 5 -3 23 0 6 10 11 5 5 5 -3 5 10 5 14 18 18 -1 -5 -3 1 5 3
10 22 -4 6 12 16 -3 7 11 10 11 22 4 -3 10 13 14 16 10 7 7 5 11 7 9 17 14 18 24 12 16 6 -6 5 19 4 19 25 17 8 1 0 -2 7 7
7 4 20 5 -5 9 11 5 12 7 8 -2 15 1 -11 6 13 11 2 13 7 14 -2 15 7 7 5 5 7 25 24 14 6 -11 1 14 -5 5 -2 -1 -6 5 9 12 15
13 10 18 2 11 9 15 10 14 11 14 19 9 3 13 16 16 9 12 9 -3 5 2 4 16 6 6 9 10 6 11 16 19 11 9 -19 -10 17 18 9 11 16 24 22 8
22 9 23 5 3 8 5 23 10 8 13 6 5 6 9 11 24 13 3 7 9 19 -0 -2 -1 4 7 8 11 19 24 6 14 11 19 13 19 2 9 7 18 14 4 7 10
Height
3074 3069 3066 3062 3059 3057 3055 3053 3051 3050 3050 3049 3050 3051 3052 3052 3053 3054 3053 3063 3068 3072 3075 3077 3081 3083 3088 3090 3093 3098 3103 3102 3106 3109 3116 3118 3120 3127 3131 3135 3138 3141 3143 3146 3149
3066 3062 3058 3055 3052 3050 3048 3045 3043 3041 3039 3038 3038 3040 3041 3042 3043 3043 3048 3058 3063 3066 3068 3072 3074 3078 3082 3086 3088 3092 3094 3096 3106 3108 3109 3112 3117 3123 3127 3129 3133 3136 3139 3142 3146
3060 3055 3051 3048 3045 3042 3039 3036 3034 3031 3029 3028 3028 3028 3028 3029 3033 3034 3040 3046 3056 3060 3063 3067 3070 3073 3077 3081 3083 3085 3086 3096 3096 3098 3104 3109 3112 3117 3121 3123 3127 3132 3135 3138 3141
3052 3048 3044 3040 3037 3033 3029 3026 3024 3021 3020 3020 3020 3019 3021 3021 3028 3023 3024 3034 3042 3050 3056 3059 3062 3065 3070 3072 3077 3080 3083 3089 3094 3095 3099 3104 3108 3111 3116 3120 3122 3125 3129 3133 3137
3046 3042 3037 3032 3028 3023 3019 3015 3013 3012 3012 3012 3013 3012 3012 3012 3014 3024 3023 3024 3032 3039 3045 3051 3055 3061 3063 3069 3074 3075 3081 3083 3088 3092 3095 3099 3103 3108 3111 3114 3117 3120 3124 3128 3132
3041 3036 3030 3025 3019 3015 3010 3007 3005 3004 3005 3006 3006 3007 3006 3003 3010 3014 3015 3017 3020 3027 3033 3043 3047 3056 3062 3068 3069 3072 3077 3080 3083 3088 3092 3095 3098 3101 3106 3110 3113 3116 3119 3123 3127
3036 3029 3023 3016 3011 3007 3004 3000 2998 2998 2998 2999 3000 3001 2998 3001 3002 3006 3007 3010 3016 3021 3026 3036 3045 3051 3057 3063 3066 3071 3074 3076 3079 3084 3086 3091 3094 3091 3099 3104 3108 3111 3115 3118 3121
3029 3022 3015 3009 3004 3000 2997 2993 2992 2991 2991 2992 2993 2994 2988 2993 2995 2997 3003 3002 3001 3011 3018 3027 3033 3045 3053 3060 3062 3067 3069 3071 3073 3080 3082 3088 3081 3092 3092 3098 3102 3106 3109 3113 3116
3022 3014 3008 3003 2998 2994 2990 2987 2986 2984 2983 2985 2986 2986 2984 2985 2988 2989 2993 2997 2995 3000 3009 3023 3031 3037 3046 3051 3058 3059 3061 3064 3071 3072 3078 3079 3080 3084 3086 3089 3095 3100 3103 3106 3110
3014 3007 3002 2997 2991 2987 2984 2981 2978 2978 2977 2978 2979 2982 2980 2980 2981 2983 2987 2989 2993 2993 3002 3009 3020 3029 3036 3044 3044 3045 3051 3058 3064 3068 3070 3072 3075 3078 3080 3084 3089 3092 3096 3099 3104
3010 3004 2997 2991 2987 2982 2979 2975 2976 2974 2971 2972 2972 2972 2972 2974 2975 2979 2982 2980 2984 2988 2987 3004 3007 3015 3022 3028 3043 3049 3052 3056 3061 3064 3067 3067 3072 3073 3077 3079 3083 3086 3090 3093 3097
3007 3000 2992 2987 2983 2979 2975 2971 2969 2969 2965 2965 2965 2962 2964 2966 2967 2971 2974 2978 2980 2987 2993 2999 3002 3008 3026 3032 3038 3043 3048 3054 3058 3062 3064 3065 3065 3067 3070 3072 3077 3081 3084 3086 3089
3004 2996 2989 2983 2977 2973 2970 2967 2965 2965 2962 2958 2956 2955 2955 2959 2961 2965 2968 2971 2978 2985 2990 2990 2997 3014 3023 3029 3033 3040 3044 3050 3055 3055 3060 3060 3061 3062 3065 3067 3069 3072 3075 3078 3081
3001 2994 2987 2982 2979 2972 2967 2965 2962 2962 2959 2958 2954 2953 2953 2956 2957 2959 2968 2975 2983 2985 2984 2996 3004 3011 3019 3025 3032 3036 3042 3048 3050 3054 3056 3058 3056 3057 3058 3060 3063 3064 3067 3070 3074
2998 2992 2987 2982 2977 2972 2969 2964 2962 2962 2960 2959 2956 2953 2952 2954 2955 2959 2968 2975 2977 2983 2990 2996 3002 3008 3013 3019 3029 3032 3037 3044 3048 3052 3053 3055 3058 3053 3053 3055 3056 3057 3060 3063 3067
2997 2992 2989 2986 2979 2973 2969 2965 2963 2965 2960 2961 2959 2957 2956 2956 2961 2963 2969 2973 2983 2987 2990 2992 2998 3010 3013 3020 3025 3031 3035 3041 3045 3049 3050 3048 3051 3049 3049 3051 3052 3052 3055 3059 3062
2996 2993 2988 2986 2981 2974 2969 2966 2965 2965 2968 2966 2964 2963 2963 2963 2964 2966 2971 2970 2976 2984 2986 2993 2997 3002 3012 3013 3022 3026 3032 3037 3041 3044 3038 3043 3048 3045 3045 3047 3049 3050 3052 3056 3059
2997 2993 2990 2986 2981 2975 2971 2968 2968 2969 2966 2966 2965 2967 2968 2969 2971 2971 2974 2976 2983 2984 2991 2996 3001 3002 3003 3012 3017 3024 3028 3028 3026 3028 3034 3041 3040 3040 3042 3043 3046 3048 3051 3054 3056
2998 2995 2991 2987 2982 2978 2976 2971 2973 2971 2969 2967 2970 2974 2975 2972 2973 2970 2977 2981 2986 2987 2991 2998 3001 3002 3003 3009 3018 3021 3022 3027 3027 3030 3031 3035 3036 3036 3037 3040 3043 3046 3050 3052 3054
2999 2996 2992 2987 2985 2982 2979 2977 2977 2975 2974 2972 2974 2977 2979 2980 2976 2977 2982 2987 2989 2993 2994 2999 3003 3006 3008 3012 3016 3019 3024 3028 3027 3026 3025 3032 3033 3032 3033 3037 3041 3045 3048 3050 3051
3000 2997 2993 2990 2988 2986 2982 2981 2980 2979 2976 2975 2978 2981 2983 2984 2983 2983 2987 2991 2992 2994 2995 2998 3002 3012 3013 3015 3017 3020 3022 3023 3023 3023 3021 3025 3029 3029 3032 3036 3040 3043 3045 3046 3048
3002 2999 2996 2993 2992 2988 2986 2985 2984 2983 2982 2980 2982 2983 2985 2986 2987 2987 2990 2991 2994 2996 2998 3000 3004 3011 3014 3015 3017 3019 3020 3022 3023 3025 3025 3027 3030 3028 3031 3035 3038 3040 3042 3044 3045
3003 3002 2998 2996 2993 2992 2991 2989 2987 2987 2986 2986 2986 2987 2988 2988 2991 2993 2994 2996 2997 2999 3001 3003 3007 3012 3017 3019 3017 3017 3019 3020 3022 3023 3025 3027 3029 3027 3030 3035 3037 3038 3039 3040 3042
3004 3003 3002 2998 2997 2995 2994 2993 2991 2990 2989 2989 2990 2991 2991 2991 2992 2995 2997 2998 3000 3001 3002 3004 3005 3007 3009 3011 3012 3014 3016 3019 3021 3024 3025 3026 3026 3027 3031 3034 3035 3036 3036 3037 3036
3004 3003 3002 3001 2999 2996 2996 2996 2995 2993 2993 2993 2993 2993 2994 2995 2995 2996 2998 3000 3002 3003 3004 3005 3007 3008 3009 3010 3011 3011 3014 3016 3018 3022 3025 3027 3029 3030 3031 3032 3032 3032 3032 3032 3032
3005 3004 3004 3002 3000 2999 2997 2997 2996 2996 2996 2996 2996 2996 2996 2996 2997 2998 3000 3002 3003 3006 3007 3008 3010 3012 3013 3013 3013 3013 3013 3014 3016 3018 3021 3024 3026 3027 3028 3028 3028 3028 3028 3028 3028
3006 3004 3004 3004 3002 3000 2999 2998 2998 2998 2998 2998 2998 2998 2997 2997 2997 2999 3000 3002 3003 3004 3006 3008 3009 3010 3010 3010 3011 3012 3011 3012 3014 3017 3020 3021 3023 3024 3024 3025 3025 3025 3025 3025 3025